gigantits.com alexa rank chart, gigantits.com alexa rank daily changes

gigantits.com alexa rank chart, gigantits.com alexa rank daily changes

gigantits.com
Actual rank:
90 833

RANK HISTORY

Date Rank Diff
2017/01/18 90 833 +44
2017/01/17 90 789 -443
2017/01/16 91 232 -360
2017/01/15 91 592 +1 349
2017/01/14 90 243 +51
2017/01/13 90 192 +1 189
2017/01/12 89 003 +899
2017/01/11 88 104 +709
2017/01/10 87 395 -5
2017/01/09 87 400 -887
2017/01/08 88 287 -175
2017/01/07 88 462 +628
2017/01/06 87 834 +912
2017/01/05 86 922 +1 538
2017/01/04 85 384 -217
2017/01/03 85 601 -498
2017/01/02 86 099 -541
2017/01/01 86 640 -492
2016/12/31 87 132 +1 007
2016/12/30 86 125 +289
2016/12/29 85 836 -132
2016/12/28 85 968 -430
2016/12/27 86 398 +432
2016/12/26 85 966 -1 323
2016/12/25 87 289 -570
2016/12/24 87 859 -1 325
2016/12/23 89 184 +39
2016/12/22 89 145 +1 728
2016/12/21 87 417 +1 063
2016/12/20 86 354 -193
2016/12/19 86 547 +1 185
2016/12/18 85 362 +485
2016/12/17 84 877 -28
2016/12/16 84 905 -43
2016/12/15 84 948 -1 082
2016/12/14 86 030 -500
2016/12/13 86 530 -1 602
2016/12/12 88 132 +221
2016/12/11 87 911 +1 143
2016/12/10 86 768 -524
2016/12/09 87 292 +945
2016/12/08 86 347 -845
2016/12/07 87 192 -215
2016/12/06 87 407 -315
2016/12/05 87 722 -1 236
2016/12/04 88 958 -539
2016/12/02 89 497 -211
2016/12/01 89 708 -558
2016/11/30 90 266 -1 819
2016/11/29 92 085 +952
2016/11/28 91 133 -771
2016/11/27 91 904 +964
2016/11/26 90 940 -818
2016/11/25 91 758 +1 320
2016/11/24 90 438 +517
2016/11/23 89 921 -3 760
2016/11/19 93 681

WIDGET FOR YOUR SITE

DOMAINS WITH THE NEAREST RANK

Domain Rank
pssl.com 90 828
online-downloader.com 90 829
4wdsupacentre.com.au 90 830
cpmrocket.com 90 831
pinoytopmovies.info 90 832
gigantits.com 90 833
usavolleyballacademy.org 90 834
thebritmethod.xyz 90 835
thedrinksbusiness.com 90 836
htnet.hr 90 837
haut.edu.cn 90 838

DOMAINS WITH THE NEAREST RANK BY TLD .com

Domain Rank
dsmedia24.com 90 824
neutrogena.com 90 826
pssl.com 90 828
online-downloader.com 90 829
cpmrocket.com 90 831
gigantits.com 90 833
thedrinksbusiness.com 90 836
yallakora-online.com 90 839
parimatchsport3.com 90 840
trikepatrol.com 90 841
yadbs.com 90 843